Volver al catálogo

SPOT 1

ActivoCienciaPO
NORAD 16613·PAYLOAD·🇫🇷 France

Lanzado Feb 22, 1986 desde Guiana Space Centre

Loading…

Próximos Pases (próximas 24 horas)

TLE

ActualizadoSource: Space-Track

Época: Sep 14, 2026, 14:10 UTC

1 16613U 86019A   26257.59056896  .00001252  00000-0  18621-3 0  9992
2 16613  98.6661 196.5301 0127947 345.4660  14.2879 14.71673450824146

Sigue SPOT 1 en tiempo real con AllMySat

Download on the App Store